{"data":{"norad_id":53280,"intl_designator":"2022-086AQ","name":"STARLINK-4169","alt_names":[],"object_type":"PAYLOAD","status":"ACTIVE","operator":null,"country":"US","launch_date":"2022-07-24","launch_site_code":"AFETR","launch_vehicle":null,"mission":null,"orbit_class":"UNKNOWN","rcs_meters":null,"size_class":null,"mass_kg":null,"dimensions":null,"purposes":["comms"],"wikipedia_slug":null,"has_3d_model":false,"image_url":null,"decayed_at":null,"tle_current":{"epoch":"2026-05-25T01:13:09.857856Z","epoch_age_seconds":67186,"freshness":"FRESH","line1":"1 53280U 22086AQ  26145.05080854 -.00000296  00000+0 -48860-6 0  9994","line2":"2 53280  53.2136 155.9964 0001404  89.6822 270.4331 15.08834009213366","mean_motion":15.08834009,"eccentricity":0.0001404,"inclination_deg":53.2136,"raan_deg":155.9964,"arg_perigee_deg":89.6822,"mean_anomaly_deg":270.4331,"bstar":-4.886e-7,"rev_number":21336,"period_min":95.437933623618,"perigee_km":538.79042813732,"apogee_km":540.7329740926,"semimajor_km":6917.898701115,"source":"CELESTRAK","updated_at":"2026-05-25T13:38:17.367792Z"}}}